Погода в Горшках

Россия / Пермский край     57°56′24″N   55°44′36″E
темп.,
°C
ветер,
м/с
пор.,
м/с
влажн.,
%
обл.,
%
осадки,
мм/ч
давл.,
гПа
погр.,
м
23 апреля, пт
пт2323:00+5ю2681100 0.1 1027303
02:00+5ю3893100 0.1 1027622
05:00+4ю3797100 0.1 1028461
08:00+3ю2697100 0.0 1028381
11:00+5ююз3585100 0.0 1029585
14:00+8ю3470100 0.0 1029908
17:00+10ю236372 0.0 1028990
20:00+8ююв247579 0.0 1028190
24 апреля, сб
сб2423:00+5вюв2584100 0.0 1028166
02:00+5в2784100 0.0 1026204
05:00+3в399097 0.0 1025270
08:00+4всв3885100 0.0 1023347
11:00+6в3786100 0.1 1021403
14:00+6в3993100 1.4 1019546
17:00+6в31095100 2.9 1018598
20:00+6вюв4893100 1.3 1016827
25 апреля, вс
вс2523:00+5вюв41094100 2.2 1015678
02:00+5вюв3893100 0.4 1013768
05:00+5вюв41089100 0.5 1012821
08:00+4вюв4997100 0.6 1010799
11:00+4вюв41097100 1.3 1009725
14:00+5вюв41193100 0.3 1007673
17:00+6ю51089100 2.1 10061052
20:00+4юз3108788 0.3 1007820
26 апреля, пн
пн2623:00+3ююз310916 0.3 1008352
02:00+3юз5138684 0.0 1009692
05:00+2юз513887 0.0 1010685
08:00+3юз5127920 0.0 1011910
11:00+7юз6136598 0.1 10111902
14:00+9зюз7145350 0.4 10122279
17:00+9юз7145866 1.3 10122064
20:00+7юз611655 0.4 10121130
27 апреля, вт
вт2723:00+5юз4118033 0.6 1013429
02:00+3юз28895 0.0 1012199
05:00+2ююз119426 0.0 101213
08:00+4ююз128378 0.0 1011156
11:00+10ююз13585 0.0 10101007
14:00+13зюз134150 0.3 10071955
17:00+13ююв2337100 0.4 10062013
20:00+10ю245639 0.0 1006106